Time,TemperatureF,DewpointF,PressureIn,WindDirection,WindDirectionDegrees,WindSpeedMPH,WindSpeedGustMPH,Humidity,HourlyPrecipIn,Conditions,Clouds,dailyrainin,SolarRadiationWatts/m^2,SoftwareType,DateUTC
2013-01-17 00:22:00,20.0,18.0,-100.00,WNW,283,0.0,0.0,91,0.00,,,0.00,0.000000,,2013-01-17 09:22:00,
2013-01-17 00:32:00,20.0,18.0,-100.00,WNW,283,0.0,0.0,91,0.00,,,0.00,0.000000,,2013-01-17 09:32:00,
2013-01-17 00:42:00,20.0,18.0,-100.00,WNW,283,0.0,0.0,91,0.00,,,0.00,0.000000,,2013-01-17 09:42:00,
2013-01-17 00:52:00,20.0,18.0,-100.00,WNW,283,0.0,0.0,91,0.00,,,0.00,0.000000,,2013-01-17 09:52:00,
2013-01-17 01:22:00,20.0,18.0,-100.00,SSW,197,0.0,0.0,90,0.00,,,0.00,0.000000,,2013-01-17 10:22:00,
2013-01-17 01:32:00,20.0,18.0,-100.00,SSW,197,0.0,0.0,90,0.00,,,0.00,0.000000,,2013-01-17 10:32:00,
2013-01-17 01:42:00,20.0,18.0,-100.00,SSW,197,0.0,0.0,90,0.00,,,0.00,0.000000,,2013-01-17 10:42:00,
2013-01-17 01:52:00,20.0,18.0,-100.00,SSW,197,0.0,0.0,90,0.00,,,0.00,0.000000,,2013-01-17 10:52:00,
2013-01-17 02:22:00,19.0,17.0,-100.00,WNW,288,0.0,0.0,90,0.00,,,0.00,0.000000,,2013-01-17 11:22:00,
2013-01-17 02:32:00,19.0,17.0,-100.00,WNW,288,0.0,0.0,90,0.00,,,0.00,0.000000,,2013-01-17 11:32:00,
2013-01-17 02:42:00,19.0,17.0,-100.00,WNW,288,0.0,0.0,90,0.00,,,0.00,0.000000,,2013-01-17 11:42:00,
2013-01-17 02:52:00,19.0,17.0,-100.00,WNW,288,0.0,0.0,90,0.00,,,0.00,0.000000,,2013-01-17 11:52:00,
2013-01-17 03:22:00,19.0,17.0,-100.00,NE,36,0.0,0.0,90,0.00,,,0.00,0.000000,,2013-01-17 12:22:00,
2013-01-17 03:32:00,19.0,17.0,-100.00,NE,36,0.0,0.0,90,0.00,,,0.00,0.000000,,2013-01-17 12:32:00,
2013-01-17 03:42:00,19.0,17.0,-100.00,NE,36,0.0,0.0,90,0.00,,,0.00,0.000000,,2013-01-17 12:42:00,
2013-01-17 03:52:00,19.0,17.0,-100.00,NE,36,0.0,0.0,90,0.00,,,0.00,0.000000,,2013-01-17 12:52:00,
2013-01-17 04:22:00,20.0,18.0,-100.00,NNE,19,0.0,0.0,90,0.00,,,0.00,0.000000,,2013-01-17 13:22:00,
2013-01-17 04:33:00,20.0,18.0,-100.00,NNE,19,0.0,0.0,90,0.00,,,0.00,0.000000,,2013-01-17 13:33:00,
2013-01-17 04:42:00,20.0,18.0,-100.00,NNE,19,0.0,0.0,90,0.00,,,0.00,0.000000,,2013-01-17 13:42:00,
2013-01-17 04:52:00,20.0,18.0,-100.00,NNE,19,0.0,0.0,90,0.00,,,0.00,0.000000,,2013-01-17 13:52:00,
2013-01-17 05:23:00,19.0,16.0,-100.00,NNE,18,0.0,0.0,87,0.00,,,0.00,0.000000,,2013-01-17 14:23:00,
2013-01-17 05:33:00,19.0,16.0,-100.00,NNE,18,0.0,0.0,87,0.00,,,0.00,0.000000,,2013-01-17 14:33:00,
2013-01-17 05:42:00,19.0,16.0,-100.00,NNE,18,0.0,0.0,87,0.00,,,0.00,0.000000,,2013-01-17 14:42:00,
2013-01-17 05:52:00,19.0,16.0,-100.00,NNE,18,0.0,0.0,87,0.00,,,0.00,0.000000,,2013-01-17 14:52:00,
2013-01-17 06:22:00,19.0,16.0,-100.00,NNE,21,0.0,0.0,86,0.00,,,0.00,0.000000,,2013-01-17 15:22:00,
2013-01-17 06:33:00,19.0,16.0,-100.00,NNE,21,0.0,0.0,86,0.00,,,0.00,0.000000,,2013-01-17 15:33:00,
2013-01-17 06:43:00,19.0,16.0,-100.00,NNE,21,0.0,0.0,86,0.00,,,0.00,0.000000,,2013-01-17 15:43:00,
2013-01-17 06:52:00,19.0,16.0,-100.00,NNE,21,0.0,0.0,86,0.00,,,0.00,0.000000,,2013-01-17 15:52:00,
2013-01-17 07:22:00,19.0,16.0,-100.00,NNW,344,0.0,0.0,87,0.00,,,0.00,0.000000,,2013-01-17 16:22:00,
2013-01-17 07:33:00,19.0,16.0,-100.00,NNW,344,0.0,0.0,87,0.00,,,0.00,0.000000,,2013-01-17 16:33:00,
2013-01-17 07:43:00,19.0,16.0,-100.00,NNW,344,0.0,0.0,87,0.00,,,0.00,0.000000,,2013-01-17 16:43:00,
2013-01-17 07:52:00,19.0,16.0,-100.00,NNW,344,0.0,0.0,87,0.00,,,0.00,0.000000,,2013-01-17 16:52:00,
2013-01-17 08:22:00,18.0,15.0,-100.00,NNE,32,0.0,0.0,87,0.00,,,0.00,0.000000,,2013-01-17 17:22:00,
2013-01-17 08:33:00,18.0,15.0,-100.00,NNE,32,0.0,0.0,87,0.00,,,0.00,0.000000,,2013-01-17 17:33:00,
2013-01-17 08:43:00,18.0,15.0,-100.00,NNE,32,0.0,0.0,87,0.00,,,0.00,0.000000,,2013-01-17 17:43:00,
2013-01-17 08:53:00,18.0,15.0,-100.00,NNE,32,0.0,0.0,87,0.00,,,0.00,0.000000,,2013-01-17 17:53:00,
2013-01-17 09:22:00,18.0,15.0,-100.00,NNE,16,0.0,0.0,88,0.00,,,0.00,0.000000,,2013-01-17 18:22:00,
2013-01-17 09:33:00,18.0,15.0,-100.00,NNE,16,0.0,0.0,88,0.00,,,0.00,0.000000,,2013-01-17 18:33:00,
2013-01-17 09:43:00,18.0,15.0,-100.00,NNE,16,0.0,0.0,88,0.00,,,0.00,0.000000,,2013-01-17 18:43:00,
2013-01-17 09:52:00,18.0,15.0,-100.00,NNE,16,0.0,0.0,88,0.00,,,0.00,0.000000,,2013-01-17 18:52:00,
2013-01-17 10:22:00,18.0,15.0,-100.00,NE,55,0.0,0.0,88,-99.99,,,-99.99,,,2013-01-17 19:22:00,
2013-01-17 10:33:00,18.0,15.0,-100.00,NE,55,0.0,0.0,88,-99.99,,,-99.99,,,2013-01-17 19:33:00,
2013-01-17 10:42:00,18.0,15.0,-100.00,NE,55,0.0,0.0,88,-99.99,,,-99.99,,,2013-01-17 19:42:00,
2013-01-17 10:52:00,18.0,15.0,-100.00,NE,55,0.0,0.0,88,-99.99,,,-99.99,,,2013-01-17 19:52:00,
2013-01-17 11:22:00,18.0,15.0,-100.00,ENE,60,0.0,0.0,86,-99.99,,,0.00,2.000000,,2013-01-17 20:22:00,
2013-01-17 11:33:00,18.0,15.0,-100.00,ENE,60,0.0,0.0,86,-99.99,,,0.00,2.000000,,2013-01-17 20:33:00,
2013-01-17 11:43:00,18.0,15.0,-100.00,ENE,60,0.0,0.0,86,-99.99,,,0.00,2.000000,,2013-01-17 20:43:00,
2013-01-17 11:53:00,18.0,15.0,-100.00,ENE,60,0.0,0.0,86,-99.99,,,0.00,2.000000,,2013-01-17 20:53:00,
2013-01-17 12:23:00,18.0,14.0,-100.00,NE,46,0.0,0.0,83,0.00,,,0.00,5.000000,,2013-01-17 21:23:00,
2013-01-17 12:33:00,18.0,14.0,-100.00,NE,46,0.0,0.0,83,0.00,,,0.00,5.000000,,2013-01-17 21:33:00,
2013-01-17 12:42:00,18.0,14.0,-100.00,NE,46,0.0,0.0,83,0.00,,,0.00,5.000000,,2013-01-17 21:42:00,
2013-01-17 12:52:00,18.0,14.0,-100.00,NE,46,0.0,0.0,83,0.00,,,0.00,5.000000,,2013-01-17 21:52:00,
2013-01-17 13:22:00,18.0,14.0,-100.00,NE,39,0.0,0.0,83,0.00,,,0.00,7.000000,,2013-01-17 22:22:00,
2013-01-17 13:33:00,18.0,14.0,-100.00,NE,39,0.0,0.0,83,0.00,,,0.00,7.000000,,2013-01-17 22:33:00,
2013-01-17 13:42:00,18.0,14.0,-100.00,NE,39,0.0,0.0,83,0.00,,,0.00,7.000000,,2013-01-17 22:42:00,
2013-01-17 13:52:00,18.0,14.0,-100.00,NE,39,0.0,0.0,83,0.00,,,0.00,7.000000,,2013-01-17 22:52:00,
2013-01-17 14:22:00,19.0,15.0,-100.00,WNW,297,0.0,0.0,83,0.00,,,0.00,8.000000,,2013-01-17 23:22:00,
2013-01-17 14:32:00,19.0,15.0,-100.00,WNW,297,0.0,0.0,83,0.00,,,0.00,8.000000,,2013-01-17 23:32:00,
2013-01-17 14:42:00,19.0,15.0,-100.00,WNW,297,0.0,0.0,83,0.00,,,0.00,8.000000,,2013-01-17 23:42:00,
2013-01-17 14:52:00,19.0,15.0,-100.00,WNW,297,0.0,0.0,83,0.00,,,0.00,8.000000,,2013-01-17 23:52:00,
2013-01-17 15:23:00,18.0,14.0,-100.00,ENE,61,0.0,0.0,83,0.00,,,0.00,5.000000,,2013-01-18 00:23:00,
2013-01-17 15:32:00,18.0,14.0,-100.00,ENE,61,0.0,0.0,83,0.00,,,0.00,5.000000,,2013-01-18 00:32:00,
2013-01-17 15:42:00,18.0,14.0,-100.00,ENE,61,0.0,0.0,83,0.00,,,0.00,5.000000,,2013-01-18 00:42:00,
2013-01-17 15:52:00,18.0,14.0,-100.00,ENE,61,0.0,0.0,83,0.00,,,0.00,5.000000,,2013-01-18 00:52:00,
2013-01-17 16:22:00,17.0,13.0,-100.00,ENE,61,0.0,0.0,83,0.00,,,0.00,4.000000,,2013-01-18 01:22:00,
2013-01-17 16:33:00,17.0,13.0,-100.00,ENE,61,0.0,0.0,83,0.00,,,0.00,4.000000,,2013-01-18 01:33:00,
2013-01-17 16:42:00,17.0,13.0,-100.00,ENE,61,0.0,0.0,83,0.00,,,0.00,4.000000,,2013-01-18 01:42:00,
2013-01-17 16:52:00,17.0,13.0,-100.00,ENE,61,0.0,0.0,83,0.00,,,0.00,4.000000,,2013-01-18 01:52:00,
2013-01-17 17:22:00,16.0,11.0,-100.00,NE,52,0.0,0.0,82,0.00,,,0.00,0.000000,,2013-01-18 02:22:00,
2013-01-17 17:32:00,16.0,11.0,-100.00,NE,52,0.0,0.0,82,0.00,,,0.00,0.000000,,2013-01-18 02:32:00,
2013-01-17 17:42:00,16.0,11.0,-100.00,NE,52,0.0,0.0,82,0.00,,,0.00,0.000000,,2013-01-18 02:42:00,
2013-01-17 17:52:00,16.0,11.0,-100.00,NE,52,0.0,0.0,82,0.00,,,0.00,0.000000,,2013-01-18 02:52:00,
2013-01-17 18:22:00,16.0,12.0,-100.00,NE,53,0.0,0.0,85,0.00,,,0.00,0.000000,,2013-01-18 03:22:00,
2013-01-17 18:33:00,16.0,12.0,-100.00,NE,53,0.0,0.0,85,0.00,,,0.00,0.000000,,2013-01-18 03:33:00,
2013-01-17 18:42:00,16.0,12.0,-100.00,NE,53,0.0,0.0,85,0.00,,,0.00,0.000000,,2013-01-18 03:42:00,
2013-01-17 18:52:00,16.0,12.0,-100.00,NE,53,0.0,0.0,85,0.00,,,0.00,0.000000,,2013-01-18 03:52:00,
2013-01-17 19:22:00,15.0,12.0,-100.00,SSW,203,0.0,0.0,86,0.00,,,-99.99,0.000000,,2013-01-18 04:22:00,
2013-01-17 19:32:00,15.0,12.0,-100.00,SSW,203,0.0,0.0,86,0.00,,,-99.99,0.000000,,2013-01-18 04:32:00,
2013-01-17 19:42:00,15.0,12.0,-100.00,SSW,203,0.0,0.0,86,0.00,,,-99.99,0.000000,,2013-01-18 04:42:00,
2013-01-17 19:52:00,15.0,12.0,-100.00,SSW,203,0.0,0.0,86,0.00,,,-99.99,0.000000,,2013-01-18 04:52:00,
2013-01-17 20:22:00,15.0,12.0,-100.00,North,350,0.0,0.0,86,0.00,,,0.00,0.000000,,2013-01-18 05:22:00,
2013-01-17 20:33:00,15.0,12.0,-100.00,North,350,0.0,0.0,86,0.00,,,0.00,0.000000,,2013-01-18 05:33:00,
2013-01-17 20:42:00,15.0,12.0,-100.00,North,350,0.0,0.0,86,0.00,,,0.00,0.000000,,2013-01-18 05:42:00,
2013-01-17 20:52:00,15.0,12.0,-100.00,North,350,0.0,0.0,86,0.00,,,0.00,0.000000,,2013-01-18 05:52:00,
2013-01-17 21:22:00,13.0,10.0,-100.00,East,85,0.0,0.0,86,0.00,,,0.00,0.000000,,2013-01-18 06:22:00,
2013-01-17 21:32:00,13.0,10.0,-100.00,East,85,0.0,0.0,86,0.00,,,0.00,0.000000,,2013-01-18 06:32:00,
2013-01-17 21:42:00,13.0,10.0,-100.00,East,85,0.0,0.0,86,0.00,,,0.00,0.000000,,2013-01-18 06:42:00,
2013-01-17 21:52:00,13.0,10.0,-100.00,East,85,0.0,0.0,86,0.00,,,0.00,0.000000,,2013-01-18 06:52:00,
2013-01-17 22:22:00,11.0,8.0,-100.00,ESE,104,0.0,0.0,86,0.00,,,0.00,0.000000,,2013-01-18 07:22:00,
2013-01-17 22:32:00,11.0,8.0,-100.00,ESE,104,0.0,0.0,86,0.00,,,0.00,0.000000,,2013-01-18 07:32:00,
2013-01-17 22:42:00,11.0,8.0,-100.00,ESE,104,0.0,0.0,86,0.00,,,0.00,0.000000,,2013-01-18 07:42:00,
2013-01-17 22:52:00,11.0,8.0,-100.00,ESE,104,0.0,0.0,86,0.00,,,0.00,0.000000,,2013-01-18 07:52:00,
2013-01-17 23:22:00,11.0,8.0,-100.00,NE,52,0.0,0.0,86,0.00,,,0.00,0.000000,,2013-01-18 08:22:00,
2013-01-17 23:32:00,11.0,8.0,-100.00,NE,52,0.0,0.0,86,0.00,,,0.00,0.000000,,2013-01-18 08:32:00,
2013-01-17 23:42:00,11.0,8.0,-100.00,NE,52,0.0,0.0,86,0.00,,,0.00,0.000000,,2013-01-18 08:42:00,
2013-01-17 23:52:00,11.0,8.0,-100.00,NE,52,0.0,0.0,86,0.00,,,0.00,0.000000,,2013-01-18 08:52:00,